Overview Statistics Trail Chart Weather Telemetry Raw packets
 

This is the latest recevied weather packets stored in our database for station/object N1JOV-7. If no packets are shown the sender has not sent any weather packets the latest 10 day(s).

<< 44 45 46 47 48 49 50 >>
Time Temp. Humidity Pressure Rain* Wind** Luminosity Snow
1787949662 25.56° C 82% 1014.4 hPa 0 mm - - -
1787949061 26.11° C 80% 1014.3 hPa 0 mm - - -
1787948461 26.11° C 79% 1014.2 hPa 0 mm - - -
1787947861 26.67° C 79% 1014.3 hPa 0 mm - - -
1787947261 26.11° C 80% 1014.4 hPa 0 mm - - -
1787946661 27.22° C 78% 1014.3 hPa 0 mm - - -
1787946061 27.22° C 78% 1014.4 hPa 0 mm - - -
1787945461 26.11° C 80% 1014.4 hPa 0 mm - - -
1787944862 25.56° C 81% 1014.8 hPa 0 mm - - -
1787944262 25.56° C 82% 1014.7 hPa 0 mm - - -
1787943662 25.56° C 81% 1014.9 hPa 0 mm - - -
1787943062 25.56° C 81% 1014.9 hPa 0 mm - - -
1787942462 26.11° C 80% 1014.9 hPa 0 mm - - -
1787941861 26.67° C 78% 1014.9 hPa 0 mm - - -
1787941261 26.67° C 77% 1014.8 hPa 0 mm - - -
1787940661 26.67° C 76% 1015 hPa 0 mm - - -
1787940061 27.22° C 75% 1015.1 hPa 0 mm - - -
1787939461 27.78° C 74% 1015.2 hPa 0 mm - - -
1787938866 27.22° C 74% 1015.1 hPa 0 mm - - -
1787938261 27.22° C 75% 1015.3 hPa 0 mm - - -
1787937662 26.67° C 77% 1015.2 hPa 0 mm - - -
1787937062 26.11° C 78% 1015.3 hPa 0 mm - - -
1787936462 26.67° C 78% 1015.3 hPa 0 mm - - -
1787935862 26.67° C 77% 1015.4 hPa 0 mm - - -
1787935262 26.11° C 80% 1015.5 hPa 0 mm - - -

* Rain latest hour (hover to see other rain measurements)
** Current wind speed in m/s (hover to see current wind gust speed)